 ,�O�C���x[��],����1,�O�C���x[��],����2,���ԉ��x[��],,����3,���Ԏ��x[��],����4,�m��2(��󒲎�)���x[��],����5,����[��],����6
2003/5/1 0:00,10.1,0,51,0,24.25,,0,47,0,23,0,16.7,0
2003/5/1 0:15,10.1,0,49,0,24.1,,0,47,0,22.8,0,16.7,0
2003/5/1 0:30,10.1,0,47,0,23.95,,0,46.5,0,22.7,0,16.8,0
2003/5/1 0:45,10.3,0,45,0,23.8,,0,46,0,22.6,0,16.9,0
2003/5/1 1:00,10.4,0,42,0,23.7,,0,45,0,22.5,0,17,0
2003/5/1 1:15,10.4,0,44,0,23.6,,0,44,0,22.4,0,17.1,0
2003/5/1 1:30,10.3,0,46,0,23.45,,0,44,0,22.3,0,17.2,0
2003/5/1 1:45,10.1,0,52,0,23.3,,0,44,0,22.2,0,17.2,0
2003/5/1 2:00,9.7,0,57,0,23.2,,0,43.5,0,22.1,0,17.3,0
2003/5/1 2:15,9.3,0,63,0,23.1,,0,43,0,22,0,17.4,0
2003/5/1 2:30,8.7,0,69,0,23,,0,43,0,21.9,0,17.5,0
2003/5/1 2:45,8.3,0,68,0,22.9,,0,43,0,21.8,0,17.6,0
2003/5/1 3:00,8.1,0,67,0,22.8,,0,43,0,21.7,0,17.6,0
2003/5/1 3:15,8.1,0,64,0,22.7,,0,43,0,21.6,0,17.7,0
2003/5/1 3:30,7.9,0,61,0,22.65,,0,43,0,21.6,0,17.8,0
2003/5/1 3:45,8.1,0,57,0,22.6,,0,43,0,21.5,0,17.8,0
2003/5/1 4:00,8.2,0,52,0,22.55,,0,42,0,21.4,0,17.9,0
2003/5/1 4:15,8.2,0,53,0,22.5,,0,41,0,21.3,0,17.9,0
2003/5/1 4:30,8.1,0,54,0,22.55,,0,40.5,0,21.3,0,18,0
2003/5/1 4:45,8,0,50,0,22.6,,0,40,0,21.2,0,18.1,0
2003/5/1 5:00,8.2,0,45,0,22.45,,0,40,0,21.2,0,18.1,0
2003/5/1 5:15,8,0,47,0,22.3,,0,40,0,21.1,0,18.2,0
2003/5/1 5:30,8,0,48,0,22.35,,0,39.5,0,21,0,18.2,0
2003/5/1 5:45,8.4,0,46,0,22.4,,0,39,0,21,0,18.3,0
2003/5/1 6:00,8.7,0,44,0,22.4,,0,40,0,21,0,18.3,0
2003/5/1 6:15,9.1,0,41,0,22.4,,0,41,0,20.9,0,17.8,0
2003/5/1 6:30,9.5,0,38,0,22.5,,0,41.5,0,20.9,0,17.8,0
2003/5/1 6:45,9.8,0,37,0,22.6,,0,42,0,20.9,0,17.8,0
2003/5/1 7:00,10.2,0,36,0,22.75,,0,42.5,0,20.9,0,17.9,0
2003/5/1 7:15,11.1,0,35,0,22.9,,0,43,0,20.9,0,17.9,0
2003/5/1 7:30,11.6,0,33,0,23,,0,43,0,20.8,0,18,0
2003/5/1 7:45,12.1,0,32,0,23.1,,0,43,0,20.7,0,18,0
2003/5/1 8:00,12.6,0,30,0,23,,0,42.5,0,20.7,0,18.1,0
2003/5/1 8:15,13.3,0,29,0,22.9,,0,42,0,20.8,0,18.1,0
2003/5/1 8:30,13.7,0,27,0,22.85,,0,41.5,0,21,0,18.2,0
2003/5/1 8:45,14.1,0,26,0,22.8,,0,41,0,21,0,17.5,0
2003/5/1 9:00,14,0,25,0,22.7,,0,39.5,0,21,0,17.5,0
2003/5/1 9:15,14.7,0,24,0,22.6,,0,38,0,21,0,17.6,0
2003/5/1 9:30,16.1,0,23,0,22.6,,0,39,0,20.9,0,17.6,0
2003/5/1 9:45,16.5,0,23,0,22.6,,0,40,0,21,0,17.7,0
2003/5/1 10:00,16.8,0,23,0,22.15,,0,29.5,0,20.9,0,17.3,0
2003/5/1 10:15,18.3,0,22,0,21.7,,0,19,0,20.7,0,17.3,0
2003/5/1 10:30,18.7,0,21,0,21.8,,0,25,0,20.6,0,17.4,0
2003/5/1 10:45,19.7,0,20,0,21.9,,0,31,0,20.5,0,17.1,0
2003/5/1 11:00,20.3,0,19,0,21.95,,0,33,0,20.5,0,17.1,0
2003/5/1 11:15,18.6,0,19,0,22,,0,35,0,20.5,0,17.2,0
2003/5/1 11:30,16.7,0,19,0,21.95,,0,35,0,20.5,0,17.2,0
2003/5/1 11:45,16.3,0,20,0,21.9,,0,35,0,20.5,0,17.3,0
2003/5/1 12:00,15.9,0,20,0,21.9,,0,35.5,0,20.4,0,17.3,0
2003/5/1 12:15,16.1,0,20,0,21.9,,0,36,0,20.4,0,17.4,0
2003/5/1 12:30,16.2,0,20,0,21.9,,0,35.5,0,20.4,0,17.5,0
2003/5/1 12:45,16.2,0,20,0,21.9,,0,35,0,20.4,0,17.5,0
2003/5/1 13:00,16.4,0,20,0,21.9,,0,35,0,20.3,0,17.4,0
2003/5/1 13:15,16.6,0,19,0,21.9,,0,35,0,20.3,0,17.5,0
2003/5/1 13:30,16.5,0,18,0,21.9,,0,35,0,20.3,0,17.5,0
2003/5/1 13:45,16.6,0,18,0,21.9,,0,35,0,20.3,0,17.6,0
2003/5/1 14:00,16.4,0,17,0,21.85,,0,35,0,20.3,0,17.6,0
2003/5/1 14:15,16.3,0,17,0,21.8,,0,35,0,20.2,0,17.7,0
2003/5/1 14:30,16.5,0,17,0,21.8,,0,34.5,0,20.2,0,17.7,0
2003/5/1 14:45,16.6,0,17,0,21.8,,0,34,0,20.2,0,17.8,0
2003/5/1 15:00,16.7,0,16,0,21.8,,0,34,0,20.2,0,17.9,0
2003/5/1 15:15,16.6,0,17,0,21.8,,0,34,0,20.2,0,17.9,0
2003/5/1 15:30,16.4,0,17,0,21.75,,0,34,0,20.2,0,18,0
2003/5/1 15:45,16.5,0,17,0,21.7,,0,34,0,20.1,0,18,0
2003/5/1 16:00,16.6,0,17,0,21.7,,0,34,0,20.1,0,18.1,0
2003/5/1 16:15,16.7,0,18,0,21.7,,0,34,0,20.1,0,18.1,0
2003/5/1 16:30,16.6,0,18,0,21.85,,0,34.5,0,20.1,0,18.2,0
2003/5/1 16:45,16.4,0,20,0,22,,0,35,0,20.1,0,17.4,0
2003/5/1 17:00,16,0,22,0,22.7,,0,35.5,0,20.1,0,17.4,0
2003/5/1 17:15,15.4,0,23,0,23.4,,0,36,0,20.3,0,17.5,0
2003/5/1 17:30,14.9,0,23,0,23.8,,0,36.5,0,21,0,17.6,0
2003/5/1 17:45,14.8,0,23,0,24.2,,0,37,0,21,0,17.6,0
2003/5/1 18:00,14.6,0,23,0,25.1,,0,43,0,20.8,0,17.7,0
2003/5/1 18:15,14.9,0,28,0,26,,0,49,0,20.7,0,17.7,0
2003/5/1 18:30,14.8,0,33,0,26.05,,0,46.5,0,21,0,17.8,0
2003/5/1 18:45,14.3,0,35,0,26.1,,0,44,0,20.8,0,17.8,0
2003/5/1 19:00,13.6,0,36,0,26.25,,0,42,0,20.8,0,17.9,0
2003/5/1 19:15,13.6,0,37,0,26.4,,0,40,0,21.1,0,17.3,0
2003/5/1 19:30,13.3,0,38,0,26.5,,0,41,0,20.9,0,17.3,0
2003/5/1 19:45,13.1,0,38,0,26.6,,0,42,0,20.7,0,17.4,0
2003/5/1 20:00,12.9,0,37,0,26.6,,0,42.5,0,20.7,0,17.2,0
2003/5/1 20:15,12.7,0,38,0,26.6,,0,43,0,20.6,0,17.2,0
2003/5/1 20:30,12.3,0,39,0,26.6,,0,43.5,0,20.6,0,16.8,0
2003/5/1 20:45,11.9,0,40,0,26.6,,0,44,0,20.5,0,16.8,0
2003/5/1 21:00,11.6,0,40,0,26.7,,0,44.5,0,20.7,0,16.7,0
2003/5/1 21:15,11.3,0,42,0,26.8,,0,45,0,20.6,0,16.8,0
2003/5/1 21:30,10.9,0,44,0,26.5,,0,45.5,0,20.8,0,16.9,0
2003/5/1 21:45,10.8,0,45,0,26.2,,0,46,0,21,0,17,0
2003/5/1 22:00,11,0,45,0,26.4,,0,45.5,0,21.1,0,17,0
2003/5/1 22:15,10.8,0,47,0,26.6,,0,45,0,20.9,0,17.1,0
2003/5/1 22:30,10.7,0,49,0,26.7,,0,44.5,0,20.9,0,17.2,0
2003/5/1 22:45,10.6,0,50,0,26.8,,0,44,0,20.8,0,17.2,0
2003/5/1 23:00,10.4,0,51,0,26.8,,0,44,0,20.8,0,17.3,0
2003/5/1 23:15,10.3,0,51,0,26.8,,0,44,0,20.7,0,17.4,0
2003/5/1 23:30,10.2,0,50,0,26,,0,45.5,0,20.7,0,17.4,0
2003/5/1 23:45,10.4,0,51,0,25.2,,0,47,0,20.6,0,17.5,0
2003/5/2 0:00,10.4,0,51,0,24.95,,0,48.5,0,20.9,0,17.3,0
2003/5/2 0:15,10.3,0,52,0,24.7,,0,50,0,20.9,0,17.4,0
2003/5/2 0:30,10.2,0,53,0,24.6,,0,50,0,20.9,0,17.4,0
2003/5/2 0:45,10.1,0,54,0,24.5,,0,50,0,20.8,0,17.5,0
2003/5/2 1:00,10,0,54,0,24.4,,0,50,0,20.8,0,17.6,0
2003/5/2 1:15,10,0,55,0,24.3,,0,50,0,20.8,0,17.6,0
2003/5/2 1:30,10,0,55,0,24.2,,0,50,0,20.8,0,17.7,0
2003/5/2 1:45,9.9,0,56,0,24.1,,0,50,0,20.7,0,17.7,0
2003/5/2 2:00,9.6,0,56,0,23.95,,0,49.5,0,20.7,0,17.8,0
2003/5/2 2:15,9.3,0,57,0,23.8,,0,49,0,20.7,0,17.9,0
2003/5/2 2:30,9.1,0,57,0,23.75,,0,49,0,20.6,0,17.9,0
2003/5/2 2:45,9,0,59,0,23.7,,0,49,0,20.6,0,18,0
2003/5/2 3:00,8.8,0,60,0,23.6,,0,48.5,0,20.5,0,18,0
2003/5/2 3:15,8.6,0,61,0,23.5,,0,48,0,20.5,0,18.1,0
2003/5/2 3:30,8.4,0,61,0,23.45,,0,48,0,20.5,0,18.2,0
2003/5/2 3:45,8.3,0,61,0,23.4,,0,48,0,20.4,0,18.2,0
2003/5/2 4:00,8.2,0,61,0,23.3,,0,48,0,20.4,0,18.3,0
2003/5/2 4:15,8,0,62,0,23.2,,0,48,0,20.4,0,18.3,0
2003/5/2 4:30,7.8,0,63,0,23.15,,0,48,0,20.3,0,18.4,0
2003/5/2 4:45,7.7,0,64,0,23.1,,0,48,0,20.3,0,18.4,0
2003/5/2 5:00,7.7,0,64,0,23.05,,0,48,0,20.2,0,18.5,0
2003/5/2 5:15,7.8,0,63,0,23,,0,48,0,20.2,0,18.5,0
2003/5/2 5:30,8.2,0,61,0,23.05,,0,48,0,20.2,0,18.5,0
2003/5/2 5:45,8.7,0,59,0,23.1,,0,48,0,20.2,0,18.6,0
2003/5/2 6:00,9.4,0,56,0,23.15,,0,47.5,0,20.1,0,18.6,0
2003/5/2 6:15,10.3,0,53,0,23.2,,0,47,0,20.1,0,18.7,0
2003/5/2 6:30,11.3,0,50,0,23.3,,0,47,0,20.1,0,17.8,0
2003/5/2 6:45,12.4,0,47,0,23.4,,0,47,0,20.1,0,17.8,0
2003/5/2 7:00,13.5,0,44,0,23.55,,0,47,0,20,0,17.9,0
2003/5/2 7:15,14.4,0,43,0,23.7,,0,47,0,20,0,17.9,0
2003/5/2 7:30,15.3,0,41,0,23.75,,0,46.5,0,20,0,18,0
2003/5/2 7:45,16.1,0,40,0,23.8,,0,46,0,20.1,0,18,0
2003/5/2 8:00,17.1,0,38,0,23.85,,0,46.5,0,20.1,0,18.1,0
2003/5/2 8:15,17.8,0,39,0,23.9,,0,47,0,20.1,0,17.9,0
2003/5/2 8:30,18.2,0,40,0,23.45,,0,41.5,0,20.5,0,17.5,0
2003/5/2 8:45,17.7,0,39,0,23,,0,36,0,20.7,0,17.5,0
2003/5/2 9:00,18.1,0,38,0,23.05,,0,38.5,0,20.6,0,17.6,0
2003/5/2 9:15,18.7,0,36,0,23.1,,0,41,0,20.7,0,17.6,0
2003/5/2 9:30,19.7,0,34,0,23,,0,41,0,20.8,0,17,0
2003/5/2 9:45,20.9,0,33,0,22.9,,0,41,0,20.8,0,17.3,0
2003/5/2 10:00,21.3,0,32,0,22.95,,0,44,0,20.8,0,17.1,0
2003/5/2 10:15,22.3,0,30,0,23,,0,47,0,20.9,0,17.1,0
2003/5/2 10:30,22.8,0,28,0,22.95,,0,49,0,21,0,17.2,0
2003/5/2 10:45,23.9,0,27,0,22.9,,0,51,0,21,0,17.3,0
2003/5/2 11:00,24.7,0,25,0,22.8,,0,51,0,21,0,17.3,0
2003/5/2 11:15,23.2,0,25,0,22.7,,0,51,0,21,0,17.4,0
2003/5/2 11:30,22.5,0,24,0,22.65,,0,50.5,0,20.9,0,17.5,0
2003/5/2 11:45,22.4,0,22,0,22.6,,0,50,0,20.9,0,17.5,0
2003/5/2 12:00,22.6,0,19,0,22.55,,0,49.5,0,20.9,0,17.6,0
2003/5/2 12:15,22.8,0,18,0,22.5,,0,49,0,20.8,0,17.6,0
2003/5/2 12:30,22.9,0,17,0,22.5,,0,48.5,0,20.8,0,17.7,0
2003/5/2 12:45,23.3,0,17,0,22.5,,0,48,0,20.8,0,17.7,0
2003/5/2 13:00,23.6,0,17,0,22.5,,0,47.5,0,20.8,0,17.8,0
2003/5/2 13:15,23.7,0,18,0,22.5,,0,47,0,20.7,0,17.9,0
2003/5/2 13:30,23.8,0,19,0,22.5,,0,47,0,20.7,0,17.9,0
2003/5/2 13:45,23.9,0,18,0,22.5,,0,47,0,20.7,0,18,0
2003/5/2 14:00,24.1,0,17,0,22.45,,0,46.5,0,20.7,0,18,0
2003/5/2 14:15,24.2,0,17,0,22.4,,0,46,0,20.7,0,18.1,0
2003/5/2 14:30,24.3,0,17,0,22.4,,0,45.5,0,20.7,0,18.1,0
2003/5/2 14:45,24.5,0,19,0,22.4,,0,45,0,20.7,0,18.2,0
2003/5/2 15:00,24.5,0,20,0,22.4,,0,45,0,20.7,0,18.2,0
2003/5/2 15:15,24.5,0,21,0,22.4,,0,45,0,20.7,0,18.3,0
2003/5/2 15:30,24.6,0,21,0,22.4,,0,44.5,0,20.7,0,18.3,0
2003/5/2 15:45,24.5,0,22,0,22.4,,0,44,0,20.7,0,18.4,0
2003/5/2 16:00,24.5,0,22,0,22.4,,0,44,0,20.7,0,18.4,0
2003/5/2 16:15,24.5,0,23,0,22.4,,0,44,0,20.7,0,18.5,0
2003/5/2 16:30,24.4,0,24,0,22.35,,0,44,0,20.7,0,18.5,0
2003/5/2 16:45,24.3,0,26,0,22.3,,0,44,0,20.7,0,18.5,0
2003/5/2 17:00,24.1,0,27,0,22.3,,0,44,0,20.7,0,18.6,0
2003/5/2 17:15,23.9,0,28,0,22.3,,0,44,0,20.7,0,18.6,0
2003/5/2 17:30,23.6,0,29,0,22.3,,0,44,0,20.8,0,18.7,0
2003/5/2 17:45,23.4,0,31,0,22.3,,0,44,0,20.9,0,18.7,0
2003/5/2 18:00,23.1,0,32,0,22.3,,0,44,0,20.9,0,18.8,0
2003/5/2 18:15,22.8,0,33,0,22.3,,0,44,0,20.9,0,18.8,0
2003/5/2 18:30,22.5,0,34,0,22.25,,0,44.5,0,20.8,0,18.8,0
2003/5/2 18:45,22.2,0,36,0,22.2,,0,45,0,20.8,0,18.9,0
2003/5/2 19:00,21.8,0,38,0,22.15,,0,45,0,20.8,0,18.9,0
2003/5/2 19:15,21.4,0,38,0,22.1,,0,45,0,20.7,0,18.9,0
2003/5/2 19:30,21.2,0,38,0,22.1,,0,45,0,20.7,0,19,0
2003/5/2 19:45,21,0,40,0,22.1,,0,45,0,20.7,0,19,0
2003/5/2 20:00,20.6,0,41,0,22.05,,0,45,0,20.6,0,19.1,0
2003/5/2 20:15,20.3,0,42,0,22,,0,45,0,20.6,0,19.1,0
2003/5/2 20:30,19.8,0,42,0,22.1,,0,45.5,0,20.6,0,19.1,0
2003/5/2 20:45,19.8,0,44,0,22.2,,0,46,0,20.6,0,17.9,0
2003/5/2 21:00,19.6,0,45,0,22.25,,0,46.5,0,20.6,0,17.2,0
2003/5/2 21:15,19.5,0,46,0,22.3,,0,47,0,20.7,0,17.3,0
2003/5/2 21:30,19.2,0,47,0,22.35,,0,47.5,0,20.8,0,17.3,0
2003/5/2 21:45,19,0,49,0,22.4,,0,48,0,20.8,0,17.4,0
2003/5/2 22:00,18.8,0,51,0,22.4,,0,48.5,0,20.9,0,17.5,0
2003/5/2 22:15,18.6,0,55,0,22.4,,0,49,0,20.9,0,17.5,0
2003/5/2 22:30,18.1,0,58,0,22.45,,0,49,0,20.9,0,17.5,0
2003/5/2 22:45,17.8,0,60,0,22.5,,0,49,0,20.9,0,17.6,0
2003/5/2 23:00,17.5,0,62,0,22.5,,0,51,0,21,0,17.6,0
2003/5/2 23:15,17.3,0,64,0,22.5,,0,53,0,21.1,0,17.4,0
2003/5/2 23:30,17,0,65,0,22.4,,0,52.5,0,21.2,0,17.5,0
2003/5/2 23:45,16.8,0,66,0,22.3,,0,52,0,21.2,0,17.5,0
2003/5/3 0:00,16.6,0,67,0,22.25,,0,51.5,0,21.1,0,17.6,0
2003/5/3 0:15,16.6,0,61,0,22.2,,0,51,0,21.1,0,17.6,0
2003/5/3 0:30,16.3,0,55,0,22.2,,0,50.5,0,21.1,0,17.7,0
2003/5/3 0:45,16.1,0,54,0,22.2,,0,50,0,21.1,0,17.8,0
2003/5/3 1:00,15.9,0,53,0,22.15,,0,49.5,0,21,0,17.8,0
2003/5/3 1:15,15.6,0,55,0,22.1,,0,49,0,21,0,17.9,0
2003/5/3 1:30,15.2,0,57,0,22.1,,0,48.5,0,21.1,0,17.9,0
2003/5/3 1:45,15.1,0,58,0,22.1,,0,48,0,21.1,0,18,0
2003/5/3 2:00,15,0,59,0,22.1,,0,48,0,21.1,0,18.1,0
2003/5/3 2:15,15,0,60,0,22.1,,0,48,0,21.1,0,18.2,0
2003/5/3 2:30,14.9,0,61,0,22.05,,0,48,0,21.1,0,18.2,0
2003/5/3 2:45,14.9,0,60,0,22,,0,48,0,21.1,0,18.2,0
2003/5/3 3:00,14.8,0,59,0,22,,0,48,0,21.1,0,18.3,0
2003/5/3 3:15,14.7,0,60,0,22,,0,48,0,21.1,0,18.3,0
2003/5/3 3:30,14.5,0,61,0,22,,0,47.5,0,21.1,0,18.4,0
2003/5/3 3:45,14.3,0,63,0,22,,0,47,0,21.1,0,18.4,0
2003/5/3 4:00,14.1,0,64,0,22,,0,47,0,21.1,0,18.5,0
2003/5/3 4:15,14,0,67,0,22,,0,47,0,21.1,0,18.5,0
2003/5/3 4:30,13.8,0,69,0,21.95,,0,47,0,21.1,0,18.6,0
2003/5/3 4:45,13.7,0,68,0,21.9,,0,47,0,21,0,18.6,0
2003/5/3 5:00,13.6,0,66,0,21.9,,0,47,0,21,0,18.6,0
2003/5/3 5:15,13.4,0,67,0,21.9,,0,47,0,21,0,18.7,0
2003/5/3 5:30,13.7,0,67,0,21.9,,0,47.5,0,21,0,18.7,0
2003/5/3 5:45,14,0,66,0,21.9,,0,48,0,21,0,18.8,0
2003/5/3 6:00,14.3,0,65,0,21.95,,0,48,0,21,0,18.8,0
2003/5/3 6:15,14.7,0,64,0,22,,0,48,0,21,0,18.8,0
2003/5/3 6:30,15.3,0,63,0,22.2,,0,48.5,0,21,0,18.9,0
2003/5/3 6:45,16.1,0,61,0,22.4,,0,49,0,21.1,0,18.4,0
2003/5/3 7:00,17.2,0,58,0,22.6,,0,49.5,0,21.2,0,18.4,0
2003/5/3 7:15,18.1,0,59,0,22.8,,0,50,0,21.2,0,18.5,0
2003/5/3 7:30,18.4,0,59,0,22.9,,0,52.5,0,21.3,0,17.8,0
2003/5/3 7:45,18.9,0,57,0,23,,0,55,0,21.5,0,17.8,0
2003/5/3 8:00,19.5,0,54,0,23.05,,0,53,0,21.7,0,17.9,0
2003/5/3 8:15,19.5,0,53,0,23.1,,0,51,0,21.7,0,17.9,0
2003/5/3 8:30,19.9,0,51,0,22.9,,0,50.5,0,21.8,0,18,0
2003/5/3 8:45,20.9,0,49,0,22.7,,0,50,0,21.8,0,18,0
2003/5/3 9:00,21.3,0,46,0,22.55,,0,49,0,21.6,0,18.1,0
2003/5/3 9:15,22.3,0,44,0,22.4,,0,48,0,21.5,0,17.6,0
2003/5/3 9:30,23,0,41,0,22.5,,0,47,0,21.4,0,17.6,0
2003/5/3 9:45,24.2,0,37,0,22.6,,0,46,0,21.4,0,17.7,0
2003/5/3 10:00,25.7,0,33,0,22.65,,0,44,0,21.3,0,16.8,0
2003/5/3 10:15,27.5,0,32,0,22.7,,0,42,0,21.3,0,16.9,0
2003/5/3 10:30,28.2,0,30,0,22.75,,0,41.5,0,21.4,0,17.2,0
2003/5/3 10:45,28.7,0,29,0,22.8,,0,41,0,21.4,0,17.3,0
2003/5/3 11:00,29.5,0,27,0,22.85,,0,38,0,21.4,0,17.4,0
2003/5/3 11:15,27,0,26,0,22.9,,0,35,0,21.5,0,17.5,0
2003/5/3 11:30,25.8,0,25,0,22.9,,0,36,0,21.5,0,17.5,0
2003/5/3 11:45,25.4,0,26,0,22.9,,0,37,0,21.5,0,17.6,0
2003/5/3 12:00,25.2,0,26,0,23.15,,0,35.5,0,21.4,0,17.7,0
2003/5/3 12:15,25.4,0,25,0,23.4,,0,34,0,21.5,0,17.7,0
2003/5/3 12:30,25.4,0,24,0,23.35,,0,33.5,0,21.6,0,17.8,0
2003/5/3 12:45,25.5,0,23,0,23.3,,0,33,0,21.6,0,17.9,0
2003/5/3 13:00,25.8,0,21,0,23.5,,0,32,0,21.6,0,17.9,0
2003/5/3 13:15,26.2,0,22,0,23.7,,0,31,0,21.8,0,18,0
2003/5/3 13:30,26.4,0,22,0,23.8,,0,34,0,22,0,18,0
2003/5/3 13:45,26.5,0,23,0,23.9,,0,37,0,22.3,0,18.1,0
2003/5/3 14:00,26.5,0,23,0,23.95,,0,36.5,0,22.3,0,17.9,0
2003/5/3 14:15,26.6,0,25,0,24,,0,36,0,22.3,0,18,0
2003/5/3 14:30,26.6,0,26,0,23.85,,0,37,0,22.3,0,18.1,0
2003/5/3 14:45,26.6,0,26,0,23.7,,0,38,0,22.3,0,18,0
2003/5/3 15:00,26.7,0,25,0,23.5,,0,40,0,22.2,0,18.1,0
2003/5/3 15:15,26.7,0,26,0,23.3,,0,42,0,22.2,0,18.1,0
2003/5/3 15:30,26.7,0,26,0,23.25,,0,42,0,22.1,0,18.2,0
2003/5/3 15:45,26.5,0,27,0,23.2,,0,42,0,22.1,0,18.2,0
2003/5/3 16:00,26.1,0,27,0,23.15,,0,42.5,0,22.1,0,18.3,0
2003/5/3 16:15,25.8,0,27,0,23.1,,0,43,0,22.1,0,18.4,0
2003/5/3 16:30,25.7,0,26,0,23.1,,0,43,0,22,0,18.4,0
2003/5/3 16:45,25.4,0,27,0,23.1,,0,43,0,22,0,18.5,0
2003/5/3 17:00,25.1,0,27,0,23.05,,0,42.5,0,22,0,18.5,0
2003/5/3 17:15,24.8,0,30,0,23,,0,42,0,22,0,18.6,0
2003/5/3 17:30,24.7,0,33,0,23,,0,42.5,0,22,0,18.6,0
2003/5/3 17:45,24.3,0,34,0,23,,0,43,0,22,0,18.7,0
2003/5/3 18:00,24,0,35,0,22.95,,0,43.5,0,22,0,18.8,0
2003/5/3 18:15,23.8,0,36,0,22.9,,0,44,0,22,0,18.8,0
2003/5/3 18:30,23.5,0,36,0,22.85,,0,44,0,22,0,18.9,0
2003/5/3 18:45,23.3,0,37,0,22.8,,0,44,0,21.9,0,18.9,0
2003/5/3 19:00,22.9,0,38,0,22.75,,0,44.5,0,21.9,0,18.9,0
2003/5/3 19:15,22.7,0,40,0,22.7,,0,45,0,21.8,0,19,0
2003/5/3 19:30,22.3,0,42,0,22.7,,0,45,0,21.8,0,19.1,0
2003/5/3 19:45,21.8,0,42,0,22.7,,0,45,0,21.8,0,19.1,0
2003/5/3 20:00,21.6,0,41,0,22.65,,0,45.5,0,21.7,0,19.1,0
2003/5/3 20:15,21.5,0,43,0,22.6,,0,46,0,21.7,0,19.2,0
2003/5/3 20:30,21.4,0,45,0,22.55,,0,46,0,21.7,0,19.2,0
2003/5/3 20:45,20.9,0,43,0,22.5,,0,46,0,21.6,0,19.3,0
2003/5/3 21:00,21.3,0,40,0,22.5,,0,46,0,21.6,0,19.3,0
2003/5/3 21:15,21.7,0,43,0,22.5,,0,46,0,21.6,0,19.4,0
2003/5/3 21:30,21.6,0,45,0,22.5,,0,46,0,21.6,0,19.4,0
2003/5/3 21:45,21.1,0,47,0,22.5,,0,46,0,21.5,0,19.4,0
2003/5/3 22:00,20.7,0,49,0,22.45,,0,46.5,0,21.5,0,19.5,0
2003/5/3 22:15,20.3,0,50,0,22.4,,0,47,0,21.5,0,19.5,0
2003/5/3 22:30,20.1,0,50,0,22.4,,0,47,0,21.5,0,19.6,0
2003/5/3 22:45,19.7,0,52,0,22.4,,0,47,0,21.5,0,19.6,0
2003/5/3 23:00,19.4,0,53,0,22.55,,0,48,0,21.5,0,18.3,0
2003/5/3 23:15,19.2,0,55,0,22.7,,0,49,0,21.5,0,18.3,0
2003/5/3 23:30,18.9,0,56,0,22.75,,0,49,0,21.6,0,18.4,0
2003/5/3 23:45,18.8,0,57,0,22.8,,0,49,0,21.6,0,18.4,0
2003/5/4 0:00,18.6,0,58,0,22.8,,0,49,0,21.6,0,18.5,0
2003/5/4 0:15,18.5,0,59,0,22.8,,0,49,0,21.6,0,18.5,0
2003/5/4 0:30,18.4,0,60,0,22.8,,0,49.5,0,21.7,0,18.6,0
2003/5/4 0:45,18.2,0,61,0,22.8,,0,50,0,21.7,0,18,0
2003/5/4 1:00,18,0,62,0,22.85,,0,51,0,21.7,0,18,0
2003/5/4 1:15,17.8,0,64,0,22.9,,0,52,0,21.8,0,18.1,0
2003/5/4 1:30,17.5,0,65,0,22.8,,0,52,0,21.9,0,18.1,0
2003/5/4 1:45,17.1,0,67,0,22.7,,0,52,0,21.8,0,18.2,0
2003/5/4 2:00,16.6,0,69,0,22.65,,0,51,0,21.8,0,18.3,0
2003/5/4 2:15,16.2,0,69,0,22.6,,0,50,0,21.7,0,18.4,0
2003/5/4 2:30,16.1,0,69,0,22.55,,0,50,0,21.7,0,18.4,0
2003/5/4 2:45,15.9,0,71,0,22.5,,0,50,0,21.7,0,18.5,0
2003/5/4 3:00,15.4,0,72,0,22.5,,0,50,0,21.6,0,18.5,0
2003/5/4 3:15,15.2,0,72,0,22.5,,0,50,0,21.6,0,18.6,0
2003/5/4 3:30,15,0,72,0,22.45,,0,49.5,0,21.6,0,18.6,0
2003/5/4 3:45,14.8,0,73,0,22.4,,0,49,0,21.5,0,18.7,0
2003/5/4 4:00,14.4,0,73,0,22.4,,0,49,0,21.5,0,18.7,0
2003/5/4 4:15,14.4,0,73,0,22.4,,0,49,0,21.5,0,18.8,0
2003/5/4 4:30,14.4,0,73,0,22.35,,0,49,0,21.5,0,18.8,0
2003/5/4 4:45,14.2,0,74,0,22.3,,0,49,0,21.4,0,18.9,0
2003/5/4 5:00,13.9,0,74,0,22.3,,0,49,0,21.4,0,18.9,0
2003/5/4 5:15,14,0,72,0,22.3,,0,49,0,21.4,0,19,0
2003/5/4 5:30,14.3,0,69,0,22.35,,0,49,0,21.4,0,19,0
2003/5/4 5:45,14.8,0,66,0,22.4,,0,49,0,21.4,0,19.1,0
2003/5/4 6:00,15.6,0,63,0,22.55,,0,49,0,21.4,0,19.1,0
2003/5/4 6:15,16.3,0,60,0,22.7,,0,49,0,21.4,0,19,0
2003/5/4 6:30,17.2,0,56,0,22.9,,0,49,0,21.4,0,19,0
2003/5/4 6:45,18,0,56,0,23.1,,0,49,0,21.5,0,19.1,0
2003/5/4 7:00,18.9,0,55,0,23.3,,0,49.5,0,21.6,0,18.8,0
2003/5/4 7:15,19.2,0,55,0,23.5,,0,50,0,21.7,0,18.8,0
2003/5/4 7:30,19.9,0,54,0,23.5,,0,50,0,21.8,0,18.9,0
2003/5/4 7:45,20.4,0,51,0,23.5,,0,50,0,21.8,0,18.9,0
2003/5/4 8:00,21.1,0,47,0,23.6,,0,48.5,0,22.1,0,18.9,0
2003/5/4 8:15,22,0,45,0,23.7,,0,47,0,22.1,0,18,0
2003/5/4 8:30,23,0,43,0,23.75,,0,48.5,0,22.1,0,18,0
2003/5/4 8:45,23.7,0,42,0,23.8,,0,50,0,22,0,18.1,0
2003/5/4 9:00,24.3,0,40,0,23.6,,0,48,0,22.1,0,17.2,0
2003/5/4 9:15,24.7,0,36,0,23.4,,0,46,0,22.1,0,17.2,0
2003/5/4 9:30,25.3,0,31,0,23.45,,0,45.5,0,22.1,0,16.7,0
2003/5/4 9:45,26.7,0,29,0,23.5,,0,45,0,22.1,0,16.7,0
2003/5/4 10:00,27.8,0,26,0,23.45,,0,43,0,22.1,0,16.8,0
2003/5/4 10:15,28.9,0,23,0,23.4,,0,41,0,22.1,0,16.9,0
2003/5/4 10:30,29.7,0,20,0,23.4,,0,40.5,0,22,0,17.4,0
2003/5/4 10:45,31,0,20,0,23.4,,0,40,0,22,0,17.5,0
2003/5/4 11:00,32.5,0,20,0,23.4,,0,39.5,0,22,0,17.6,0
2003/5/4 11:15,29.8,0,21,0,23.4,,0,39,0,22,0,17.6,0
2003/5/4 11:30,28.1,0,21,0,23.4,,0,38.5,0,22,0,17.7,0
2003/5/4 11:45,27.7,0,21,0,23.4,,0,38,0,22,0,17.7,0
2003/5/4 12:00,27.6,0,20,0,23.45,,0,37,0,22,0,17.8,0
2003/5/4 12:15,27.8,0,20,0,23.5,,0,36,0,22,0,17.9,0
2003/5/4 12:30,28,0,20,0,23.55,,0,35.5,0,22.1,0,18,0
2003/5/4 12:45,28.1,0,21,0,23.6,,0,35,0,22.1,0,18,0
2003/5/4 13:00,28.5,0,21,0,23.65,,0,35.5,0,22.1,0,18.1,0
2003/5/4 13:15,28.7,0,21,0,23.7,,0,36,0,22.1,0,18.2,0
2003/5/4 13:30,28.8,0,21,0,23.7,,0,37,0,22.2,0,18.2,0
2003/5/4 13:45,28.8,0,21,0,23.7,,0,38,0,22.2,0,18.3,0
2003/5/4 14:00,28.9,0,20,0,23.7,,0,37.5,0,22.2,0,18.3,0
2003/5/4 14:15,28.9,0,20,0,23.7,,0,37,0,22.3,0,18.4,0
2003/5/4 14:30,28.7,0,20,0,23.7,,0,37,0,22.3,0,18.5,0
2003/5/4 14:45,28.5,0,20,0,23.7,,0,37,0,22.3,0,18.5,0
2003/5/4 15:00,28.2,0,20,0,23.7,,0,37,0,22.3,0,18.6,0
2003/5/4 15:15,27.9,0,20,0,23.7,,0,37,0,22.3,0,18.7,0
2003/5/4 15:30,27.7,0,20,0,23.65,,0,36.5,0,22.3,0,18.7,0
2003/5/4 15:45,27.3,0,20,0,23.6,,0,36,0,22.3,0,18.8,0
2003/5/4 16:00,27,0,20,0,23.6,,0,36,0,22.3,0,18.8,0
2003/5/4 16:15,26.8,0,21,0,23.6,,0,36,0,22.3,0,18.9,0
2003/5/4 16:30,26.7,0,21,0,23.55,,0,36,0,22.3,0,18.9,0
2003/5/4 16:45,26.7,0,22,0,23.5,,0,36,0,22.3,0,19,0
2003/5/4 17:00,26.5,0,23,0,23.5,,0,36.5,0,22.3,0,19.1,0
2003/5/4 17:15,26.2,0,24,0,23.5,,0,37,0,22.3,0,19.1,0
2003/5/4 17:30,25.7,0,24,0,23.45,,0,37,0,22.3,0,19.2,0
2003/5/4 17:45,25.3,0,25,0,23.4,,0,37,0,22.4,0,19.2,0
2003/5/4 18:00,25,0,25,0,23.4,,0,37.5,0,22.3,0,18.9,0
2003/5/4 18:15,24.7,0,25,0,23.4,,0,38,0,22.3,0,18.9,0
2003/5/4 18:30,24.4,0,25,0,23.4,,0,39,0,22.3,0,18.9,0
2003/5/4 18:45,23.9,0,37,0,23.4,,0,40,0,22.3,0,19,0
2003/5/4 19:00,22.8,0,48,0,23.45,,0,44,0,22.5,0,19.1,0
2003/5/4 19:15,21.8,0,49,0,23.5,,0,48,0,22.5,0,19.1,0
2003/5/4 19:30,21.2,0,50,0,23.65,,0,49,0,22.5,0,19.2,0
2003/5/4 19:45,20.8,0,54,0,23.8,,0,50,0,22.4,0,19.2,0
2003/5/4 20:00,19.9,0,58,0,23.7,,0,50,0,22.3,0,19.3,0
2003/5/4 20:15,19.2,0,63,0,23.6,,0,50,0,22.4,0,19.3,0
2003/5/4 20:30,18.5,0,68,0,23.55,,0,50.5,0,22.5,0,19.4,0
2003/5/4 20:45,18.1,0,71,0,23.5,,0,51,0,22.5,0,18.4,0
2003/5/4 21:00,17.7,0,74,0,23.45,,0,51,0,22.5,0,18.4,0
2003/5/4 21:15,17.2,0,75,0,23.4,,0,51,0,22.5,0,18.4,0
2003/5/4 21:30,16.8,0,75,0,23.4,,0,52.5,0,22.6,0,18.5,0
2003/5/4 21:45,16.5,0,74,0,23.4,,0,54,0,22.6,0,18.6,0
2003/5/4 22:00,16.2,0,73,0,23.3,,0,53.5,0,22.6,0,18.6,0
2003/5/4 22:15,15.7,0,70,0,23.2,,0,53,0,22.5,0,18.7,0
2003/5/4 22:30,15.5,0,66,0,23.2,,0,53,0,22.5,0,18.8,0
2003/5/4 22:45,15.1,0,66,0,23.2,,0,53,0,22.4,0,18.8,0
2003/5/4 23:00,14.8,0,65,0,23.15,,0,53,0,22.4,0,18.9,0
2003/5/4 23:15,14.8,0,65,0,23.1,,0,53,0,22.4,0,18.9,0
2003/5/4 23:30,14.6,0,65,0,23.1,,0,53,0,22.3,0,19,0
2003/5/4 23:45,14.4,0,64,0,23.1,,0,53,0,22.3,0,19.1,0
2003/5/5 0:00,14.5,0,62,0,23.05,,0,53,0,22.3,0,19.1,0
2003/5/5 0:15,14.6,0,64,0,23,,0,53,0,22.3,0,19.2,0
2003/5/5 0:30,14.4,0,66,0,23,,0,53,0,22.2,0,19.2,0
2003/5/5 0:45,13.9,0,65,0,23,,0,53,0,22.2,0,19.3,0
2003/5/5 1:00,14.1,0,64,0,23,,0,53,0,22.2,0,19.3,0
2003/5/5 1:15,14.1,0,66,0,23,,0,53,0,22.2,0,19.4,0
2003/5/5 1:30,13.7,0,68,0,22.95,,0,53,0,22.2,0,19.5,0
2003/5/5 1:45,13.9,0,69,0,22.9,,0,53,0,22.2,0,19.5,0
2003/5/5 2:00,13.7,0,69,0,22.9,,0,53,0,22.1,0,19.5,0
2003/5/5 2:15,13.7,0,69,0,22.9,,0,53,0,22.1,0,19.6,0
2003/5/5 2:30,13.8,0,68,0,22.85,,0,53,0,22.1,0,19.6,0
2003/5/5 2:45,14,0,70,0,22.8,,0,53,0,22.1,0,19.7,0
2003/5/5 3:00,13.5,0,72,0,22.8,,0,53,0,22.1,0,19.7,0
2003/5/5 3:15,13.5,0,71,0,22.8,,0,53,0,22.1,0,19.8,0
2003/5/5 3:30,13.3,0,69,0,22.8,,0,53,0,22,0,19.8,0
2003/5/5 3:45,13.3,0,73,0,22.8,,0,53,0,22,0,19.9,0
2003/5/5 4:00,13.1,0,77,0,22.8,,0,53,0,22,0,19.9,0
2003/5/5 4:15,13.1,0,75,0,22.8,,0,53,0,22,0,19.9,0
2003/5/5 4:30,13.1,0,73,0,22.75,,0,53,0,22,0,20,0
2003/5/5 4:45,12.7,0,75,0,22.7,,0,53,0,22,0,19.5,0
2003/5/5 5:00,12.7,0,77,0,22.7,,0,52.5,0,21.9,0,19.5,0
2003/5/5 5:15,12.7,0,76,0,22.7,,0,52,0,21.9,0,19.5,0
2003/5/5 5:30,12.9,0,74,0,22.7,,0,52,0,21.9,0,19.6,0
2003/5/5 5:45,12.7,0,75,0,22.7,,0,52,0,21.9,0,19.6,0
2003/5/5 6:00,12.9,0,75,0,22.75,,0,52,0,21.9,0,19.6,0
2003/5/5 6:15,13.2,0,74,0,22.8,,0,52,0,21.9,0,19.7,0
2003/5/5 6:30,13.4,0,72,0,22.9,,0,52.5,0,21.9,0,19.7,0
2003/5/5 6:45,14.1,0,66,0,23,,0,53,0,21.9,0,18.9,0
2003/5/5 7:00,14.5,0,60,0,23.2,,0,53,0,22,0,18.6,0
2003/5/5 7:15,15.8,0,57,0,23.4,,0,53,0,22.2,0,18.6,0
2003/5/5 7:30,17.3,0,54,0,23.25,,0,49.5,0,22.3,0,18.7,0
2003/5/5 7:45,18.4,0,51,0,23.1,,0,46,0,22.3,0,18.7,0
2003/5/5 8:00,19.2,0,47,0,22.95,,0,44.5,0,21.9,0,18.8,0
2003/5/5 8:15,20.2,0,46,0,22.8,,0,43,0,21.6,0,18.8,0
2003/5/5 8:30,19.9,0,45,0,22.55,,0,43,0,21.4,0,18.9,0
2003/5/5 8:45,19.7,0,45,0,22.3,,0,43,0,21.4,0,18.9,0
2003/5/5 9:00,20.2,0,44,0,22.5,,0,43.5,0,21.3,0,19,0
2003/5/5 9:15,20.2,0,43,0,22.7,,0,44,0,21.3,0,17.7,0
2003/5/5 9:30,21.6,0,41,0,22.6,,0,42,0,21.3,0,17.4,0
2003/5/5 9:45,21.9,0,40,0,22.5,,0,40,0,21.1,0,17.5,0
2003/5/5 10:00,22.5,0,38,0,22.55,,0,40.5,0,21.1,0,17.5,0
2003/5/5 10:15,22.9,0,36,0,22.6,,0,41,0,21.1,0,17.5,0
2003/5/5 10:30,23.4,0,33,0,22.6,,0,42,0,21.1,0,17.6,0
2003/5/5 10:45,24.4,0,31,0,22.6,,0,43,0,21.1,0,17.6,0
2003/5/5 11:00,25.3,0,29,0,22.6,,0,41.5,0,21.2,0,17.7,0
2003/5/5 11:15,23.8,0,31,0,22.6,,0,40,0,21.2,0,17.8,0
2003/5/5 11:30,22.6,0,32,0,22.6,,0,40,0,21.2,0,17.8,0
2003/5/5 11:45,22.4,0,32,0,22.6,,0,40,0,21.2,0,17.9,0
2003/5/5 12:00,22.3,0,31,0,22.6,,0,39.5,0,21.2,0,17.9,0
2003/5/5 12:15,22.1,0,30,0,22.6,,0,39,0,21.2,0,18,0
2003/5/5 12:30,22.3,0,28,0,22.65,,0,39,0,21.2,0,18.1,0
2003/5/5 12:45,22.2,0,28,0,22.7,,0,39,0,21.2,0,18.1,0
2003/5/5 13:00,22.3,0,28,0,22.7,,0,38,0,21.2,0,18.2,0
2003/5/5 13:15,22.6,0,28,0,22.7,,0,37,0,21.2,0,18.2,0
2003/5/5 13:30,22.8,0,27,0,22.7,,0,37.5,0,21.3,0,18.3,0